Regional Weather Roundup
Issued by NWS

Home | Current Version | Previous Version | Graphics & Text | Print | Product List | Glossary On
Versions: 1 2 3 4 5 6 7 8 9 10 11 12 13 14 15 16 17 18 19 20 21 22 23 24 25 26 27
000
ASUS45 KCYS 162210
RWRWY

WYOMING REGIONAL WEATHER ROUNDUP
NATIONAL WEATHER SERVICE CHEYENNE WY
400 PM MDT WED APR 16 2014

NOTE:  "FAIR" INDICATES FEW OR NO CLOUDS BELOW 12,000 FEET
WITH NO SIGNIFICANT WEATHER AND/OR OBSTRUCTIONS TO VISIBILITY.

WYZ001-162300-
YELLOWSTONE NATIONAL PARK

CITY           SKY/WX    TMP DP  RH WIND       PRES   REMARKS
LK YELLOWSTONE   N/A     37   8  30 VRB6      29.98F WCI  32
W YELLOWSTONE  NOT AVBL

$$
WYZ002>013-054>058-071-098>099-162300-
NORTHERN WYOMING

CITY           SKY/WX    TMP DP  RH WIND       PRES   REMARKS
JACKSON        MOSUNNY   41  12  30 CALM      29.98F
CODY           CLOUDY    46  19  34 W3        29.95R
GREYBULL       MOSUNNY   50  27  40 SW8       29.95F
WORLAND        PTSUNNY   50  29  44 N15       29.96S
SHERIDAN       FLURRIES  36  32  85 SW17G23   30.01R WCI  26
BUFFALO        CLOUDY    39  30  70 VRB5      30.00F
GILLETTE       CLOUDY    44  26  49 NW14      29.98R
HULETT         FAIR      45  27  49 N10       29.99
NEWCASTLE      FAIR      46  25  42 NE6       29.96

$$
WYZ014>020-022>026-101>103-162300-
CENTRAL WYOMING

CITY           SKY/WX    TMP DP  RH WIND       PRES   REMARKS
BIG PINEY      MOSUNNY   44   9  23 N9G16     29.98S
PINEDALE       PTCLDY    39  14  35 NW15G21   29.99F WCI  31
DUBOIS         MOCLDY    41  12  30 NW15G25   29.94S
LANDER         MOSUNNY   50  19  29 NW8       29.91F
RIVERTON       MOSUNNY   48  18  30 E6        29.93F
CASPER         PTSUNNY   44  29  55 N9        29.96F
DOUGLAS        LGT RAIN  44  30  57 N9G22     29.98S

$$
WYZ021-027>030-104>119-162300-
SOUTHERN WYOMING

CITY           SKY/WX    TMP DP  RH WIND       PRES   REMARKS
EVANSTON       MOSUNNY   48   6  18 W9G23     29.98F
KEMMERER       PTCLDY    45  12  26 NW13G21   29.98S
FORT BRIDGER   FAIR      52   5  15 W12G24    29.99F
ROCK SPRINGS   SUNNY     50   3  14 W17       29.95F
DIXON          FAIR      51   8  17 S3        29.97F
RAWLINS        MOSUNNY   48  12  23 W12G21    29.95F
SARATOGA       FAIR      45  10  24 W12G24    29.97S
LARAMIE        CLOUDY    41  18  39 N13G22    29.93S
CHEYENNE       MOSUNNY   41  25  53 N18G25    29.94F
TORRINGTON     MOSUNNY   52  21  29 N16G24    29.94F
PINE BLUFFS    CLOUDY    48  23  37 N16G22    29.97R

$$



USA.gov is the U.S. government's official web portal to all federal, state and local government web resources and services.